Total_Precipitation_Accumulation
2.38 2.51 1.93 1.14 0.76 0.53 0.42 0.37 0.33 0.30 0.31 0.43 0.46 0.37 0.33 0.35 0.39 0.37 0.36 0.40 0.46 0.49 0.49 0.47 0.48 0.50 0.53 0.59 0.63 0.64 0.70 0.75 0.83 0.97 1.01 0.96 0.94 0.95 0.99 1.00 0.94 0.91 0.88 0.85
2.24 1.88 1.06 0.66 0.63 0.67 0.62 0.53 0.39 0.32 0.31 0.41 0.44 0.40 0.35 0.32 0.34 0.34 0.33 0.38 0.44 0.48 0.48 0.48 0.47 0.47 0.46 0.51 0.59 0.60 0.62 0.72 0.79 0.90 1.01 1.03 1.01 1.02 1.04 1.12 1.12 1.06 1.05 1.00
1.52 1.06 0.69 0.82 0.93 0.98 0.85 0.62 0.45 0.40 0.38 0.47 0.50 0.51 0.39 0.34 0.29 0.29 0.29 0.35 0.39 0.43 0.47 0.48 0.48 0.44 0.41 0.42 0.49 0.55 0.57 0.59 0.66 0.79 0.94 1.03 1.14 1.18 1.14 1.14 1.11 1.06 1.11 1.13
1.29 0.76 0.67 0.93 1.02 0.98 0.93 0.54 0.46 0.53 0.69 0.77 0.61 0.68 0.41 0.32 0.28 0.25 0.25 0.29 0.32 0.32 0.37 0.43 0.46 0.47 0.42 0.39 0.42 0.48 0.55 0.61 0.64 0.73 0.87 0.96 1.06 1.20 1.19 1.14 1.10 1.07 1.12 1.20
1.44 0.76 0.67 0.84 0.77 0.75 0.76 0.56 0.63 0.76 0.99 1.11 0.76 0.64 0.38 0.24 0.26 0.22 0.21 0.23 0.25 0.27 0.29 0.34 0.37 0.39 0.41 0.40 0.41 0.42 0.47 0.54 0.63 0.75 0.83 0.95 1.02 1.05 1.12 1.16 1.21 1.22 1.21 1.21
1.11 0.72 0.65 0.60 0.50 0.64 0.82 0.99 1.26 1.47 1.98 2.11 0.82 0.51 0.32 0.20 0.21 0.19 0.17 0.19 0.19 0.21 0.25 0.30 0.33 0.34 0.37 0.38 0.39 0.38 0.41 0.44 0.51 0.62 0.76 0.87 0.92 0.99 1.08 1.14 1.15 1.17 1.20 1.23
1.53 1.02 0.78 0.60 0.75 1.00 1.31 1.84 2.84 3.27 3.36 2.07 0.48 0.32 0.29 0.17 0.13 0.12 0.13 0.16 0.15 0.15 0.16 0.19 0.22 0.26 0.31 0.32 0.35 0.40 0.43 0.47 0.51 0.58 0.66 0.75 0.81 0.90 0.98 1.06 1.11 1.14 1.17 1.20
1.42 1.17 0.79 0.63 0.70 1.00 1.15 1.42 2.00 2.04 1.41 0.62 0.25 0.27 0.23 0.13 0.08 0.06 0.07 0.12 0.14 0.13 0.12 0.13 0.13 0.15 0.20 0.23 0.26 0.32 0.37 0.41 0.44 0.52 0.59 0.63 0.68 0.77 0.86 0.95 1.03 1.05 1.05 1.06
0.96 0.77 0.44 0.38 0.40 0.58 0.96 1.15 1.01 1.31 1.04 0.60 0.34 0.23 0.14 0.09 0.05 0.05 0.06 0.09 0.13 0.12 0.11 0.15 0.13 0.11 0.12 0.16 0.21 0.27 0.32 0.35 0.37 0.43 0.53 0.63 0.68 0.75 0.80 0.80 0.82 0.87 0.90 0.92
0.96 0.85 0.43 0.36 0.55 0.68 0.79 1.01 1.40 2.15 2.15 1.13 0.43 0.20 0.16 0.12 0.07 0.06 0.08 0.09 0.11 0.10 0.11 0.14 0.15 0.11 0.12 0.15 0.17 0.20 0.26 0.33 0.39 0.43 0.49 0.57 0.63 0.69 0.74 0.79 0.82 0.81 0.81 0.85
1.15 1.34 0.85 0.64 0.78 0.76 0.78 1.11 1.59 2.02 1.86 1.21 0.62 0.26 0.17 0.14 0.10 0.08 0.09 0.10 0.12 0.10 0.10 0.13 0.14 0.12 0.12 0.15 0.18 0.20 0.24 0.31 0.37 0.43 0.50 0.55 0.60 0.64 0.68 0.73 0.74 0.76 0.76 0.80
1.23 1.89 1.54 0.75 0.50 0.47 0.69 0.77 1.07 1.75 1.67 0.99 0.79 0.43 0.15 0.13 0.11 0.09 0.08 0.09 0.11 0.11 0.10 0.11 0.14 0.14 0.14 0.15 0.16 0.18 0.19 0.26 0.30 0.36 0.42 0.47 0.52 0.61 0.69 0.74 0.76 0.77 0.78 0.78
1.62 2.58 2.79 1.92 1.17 0.84 0.90 0.77 0.85 1.26 1.63 1.45 1.22 0.60 0.17 0.13 0.14 0.11 0.09 0.09 0.10 0.11 0.11 0.10 0.10 0.13 0.14 0.14 0.15 0.15 0.16 0.20 0.24 0.27 0.33 0.39 0.44 0.50 0.59 0.65 0.69 0.73 0.74 0.75
2.14 2.74 2.37 1.80 1.02 0.80 0.86 0.68 0.66 1.29 2.08 1.57 0.84 0.40 0.21 0.17 0.17 0.16 0.13 0.11 0.11 0.12 0.11 0.10 0.10 0.12 0.11 0.13 0.15 0.16 0.17 0.18 0.21 0.24 0.28 0.33 0.38 0.43 0.49 0.55 0.60 0.65 0.68 0.68
2.48 2.96 1.55 0.78 0.49 0.51 0.65 0.60 0.57 0.79 0.95 1.02 0.56 0.30 0.23 0.21 0.20 0.18 0.16 0.14 0.13 0.12 0.11 0.11 0.11 0.12 0.12 0.13 0.14 0.15 0.19 0.20 0.22 0.25 0.28 0.32 0.36 0.41 0.46 0.49 0.52 0.55 0.58 0.60
2.52 2.86 1.72 1.03 0.51 0.54 0.74 0.57 0.48 0.52 0.53 0.54 0.40 0.33 0.25 0.20 0.16 0.16 0.15 0.15 0.13 0.13 0.13 0.14 0.15 0.14 0.13 0.13 0.14 0.15 0.17 0.20 0.22 0.24 0.27 0.29 0.31 0.36 0.40 0.43 0.46 0.50 0.52 0.55
3.02 3.26 2.94 1.97 0.75 1.23 1.56 0.57 0.28 0.30 0.30 0.33 0.39 0.40 0.29 0.16 0.12 0.14 0.16 0.16 0.16 0.16 0.15 0.15 0.17 0.17 0.17 0.15 0.15 0.16 0.16 0.15 0.17 0.20 0.23 0.26 0.29 0.31 0.33 0.36 0.40 0.45 0.47 0.48
2.85 3.23 3.97 3.45 2.30 2.80 1.15 0.17 0.11 0.15 0.19 0.20 0.29 0.34 0.27 0.17 0.13 0.15 0.19 0.18 0.17 0.17 0.17 0.17 0.19 0.20 0.20 0.17 0.16 0.16 0.17 0.17 0.17 0.18 0.21 0.24 0.27 0.29 0.32 0.33 0.34 0.38 0.41 0.44
1.62 2.50 4.15 4.36 3.45 1.83 0.33 0.09 0.10 0.15 0.22 0.25 0.26 0.24 0.17 0.12 0.13 0.16 0.16 0.17 0.17 0.17 0.16 0.17 0.19 0.20 0.20 0.19 0.18 0.18 0.19 0.20 0.21 0.23 0.24 0.26 0.26 0.26 0.29 0.31 0.32 0.34 0.36 0.40
1.21 1.93 3.83 4.60 3.84 1.73 0.30 0.11 0.09 0.20 0.46 0.43 0.35 0.28 0.20 0.16 0.21 0.17 0.13 0.14 0.14 0.15 0.16 0.17 0.18 0.17 0.18 0.20 0.20 0.20 0.21 0.21 0.23 0.24 0.25 0.26 0.27 0.27 0.28 0.29 0.30 0.32 0.35 0.39
1.70 2.78 3.83 3.63 3.06 1.36 0.36 0.16 0.15 0.48 0.67 0.43 0.30 0.24 0.20 0.22 0.26 0.23 0.17 0.13 0.11 0.11 0.12 0.13 0.14 0.14 0.16 0.17 0.18 0.20 0.20 0.22 0.24 0.24 0.24 0.23 0.25 0.26 0.26 0.26 0.28 0.31 0.35 0.39
0.88 1.67 2.11 2.17 2.63 1.44 0.29 0.20 0.38 0.54 0.38 0.29 0.21 0.19 0.20 0.19 0.17 0.15 0.14 0.13 0.11 0.10 0.10 0.10 0.11 0.11 0.12 0.14 0.16 0.18 0.19 0.21 0.22 0.22 0.22 0.22 0.22 0.23 0.24 0.26 0.29 0.32 0.36 0.41
0.47 0.70 0.85 1.05 1.08 0.54 0.30 0.31 0.38 0.35 0.29 0.21 0.17 0.14 0.13 0.12 0.11 0.10 0.10 0.11 0.11 0.11 0.11 0.11 0.11 0.11 0.12 0.13 0.15 0.18 0.20 0.20 0.20 0.21 0.22 0.23 0.24 0.24 0.26 0.29 0.34 0.38 0.42 0.47
0.40 0.41 0.56 0.63 0.48 0.36 0.33 0.33 0.35 0.33 0.30 0.23 0.18 0.16 0.14 0.13 0.11 0.10 0.10 0.12 0.13 0.13 0.14 0.14 0.14 0.14 0.15 0.15 0.16 0.19 0.21 0.20 0.20 0.21 0.23 0.25 0.27 0.30 0.31 0.33 0.36 0.42 0.48 0.55
0.45 0.48 0.62 0.66 0.44 0.37 0.38 0.36 0.34 0.30 0.27 0.23 0.20 0.18 0.18 0.17 0.15 0.14 0.14 0.14 0.15 0.15 0.16 0.16 0.17 0.18 0.19 0.19 0.20 0.22 0.22 0.22 0.23 0.23 0.24 0.26 0.28 0.32 0.36 0.39 0.43 0.47 0.52 0.61
0.35 0.39 0.51 0.55 0.40 0.43 0.40 0.32 0.31 0.31 0.31 0.29 0.26 0.24 0.22 0.22 0.21 0.18 0.17 0.17 0.18 0.19 0.18 0.19 0.19 0.19 0.20 0.20 0.21 0.22 0.24 0.25 0.26 0.27 0.26 0.27 0.30 0.34 0.37 0.41 0.47 0.54 0.56 0.62